Location: Barcelona
(41.3829°N, 2.1774°E)
Time: 17:26:32
(UTC+00:00)

ISS - Pass Details

Date: 07 May 2026
Orbit: 414 x 424 km, 51.6° (Epoch: 17 May)

Event Time Altitude Azimuth Distance (km) Brightness Sun altitude
Rises 02:52:49 0° 308° (NW) 2,362 0.0 -17.8°
Reaches altitude 10° 02:54:58 10° 314° (NW) 1,498 -1.0 -17.5°
Maximum altitude 02:58:14 49° 30° (NNE) 551 -2.8 -17.1°
Drops below altitude 10° 03:01:31 10° 107° (ESE) 1,497 -0.6 -16.6°
Sets 03:03:39 0° 113° (ESE) 2,361 0.4 -16.3°
